TimeCDT,TemperatureF,Dew PointF,Humidity,Sea Level PressureIn,VisibilityMPH,Wind Direction,Wind SpeedMPH,Gust SpeedMPH,PrecipitationIn,Events,Conditions,WindDirDegrees,DateUTC
12:15 AM,52.2,32.4,47,29.84,10.0,SW,6.9,-,N/A,,Clear,220,2012-10-09 05:15:00
12:35 AM,50.2,32.4,50,29.84,10.0,SSW,6.9,-,N/A,,Clear,210,2012-10-09 05:35:00
12:55 AM,45.7,32.0,59,29.83,10.0,South,5.8,-,N/A,,Clear,190,2012-10-09 05:55:00
1:15 AM,48.2,32.4,54,29.83,10.0,South,4.6,-,N/A,,Clear,180,2012-10-09 06:15:00
1:55 AM,44.1,32.9,65,29.84,10.0,Calm,Calm,-,N/A,,Clear,0,2012-10-09 06:55:00
2:15 AM,46.6,32.5,58,29.83,10.0,Calm,Calm,-,N/A,,Clear,0,2012-10-09 07:15:00
2:55 AM,46.4,33.3,60,29.83,10.0,NE,3.5,-,N/A,,Clear,50,2012-10-09 07:55:00
3:15 AM,46.8,33.8,61,29.82,10.0,Calm,Calm,-,N/A,,Clear,0,2012-10-09 08:15:00
3:35 AM,46.4,33.6,61,29.81,10.0,South,5.8,-,N/A,,Clear,180,2012-10-09 08:35:00
3:55 AM,46.8,34.2,62,29.79,10.0,South,9.2,-,N/A,,Clear,170,2012-10-09 08:55:00
4:15 AM,49.3,34.7,57,29.79,10.0,South,9.2,-,N/A,,Clear,180,2012-10-09 09:15:00
4:35 AM,48.9,34.7,58,29.80,10.0,SSW,6.9,-,N/A,,Clear,200,2012-10-09 09:35:00
4:55 AM,49.8,35.1,57,29.79,10.0,SSW,5.8,-,N/A,,Clear,200,2012-10-09 09:55:00
5:15 AM,51.3,35.2,54,29.80,10.0,SSW,8.1,-,N/A,,Clear,210,2012-10-09 10:15:00
5:35 AM,50.2,34.9,56,29.81,10.0,SW,4.6,-,N/A,,Clear,220,2012-10-09 10:35:00
5:55 AM,49.5,35.4,58,29.81,10.0,SSW,5.8,-,N/A,,Clear,200,2012-10-09 10:55:00
6:15 AM,49.1,35.6,60,29.80,10.0,South,6.9,-,N/A,,Clear,180,2012-10-09 11:15:00
6:55 AM,50.0,36.0,59,29.81,10.0,SSW,5.8,-,N/A,,Clear,210,2012-10-09 11:55:00
7:15 AM,48.9,35.8,61,29.82,10.0,South,4.6,-,N/A,,Clear,190,2012-10-09 12:15:00
7:55 AM,50.2,36.0,58,29.82,10.0,WSW,3.5,-,N/A,,Clear,250,2012-10-09 12:55:00
8:15 AM,51.1,36.7,58,29.84,10.0,West,5.8,-,N/A,,Clear,270,2012-10-09 13:15:00
8:35 AM,54.0,36.5,52,29.86,10.0,West,11.5,-,N/A,,Clear,260,2012-10-09 13:35:00
8:55 AM,54.7,36.3,50,29.86,10.0,West,11.5,-,N/A,,Clear,270,2012-10-09 13:55:00
9:15 AM,55.4,36.7,49,29.86,10.0,West,11.5,-,N/A,,Clear,280,2012-10-09 14:15:00
9:35 AM,55.9,38.3,52,29.86,10.0,WNW,8.1,-,N/A,,Clear,300,2012-10-09 14:35:00
9:55 AM,56.1,39.6,54,29.86,10.0,NW,6.9,-,N/A,,Clear,310,2012-10-09 14:55:00
10:15 AM,56.8,40.6,55,29.88,2.5,NW,10.4,-,N/A,,Haze,310,2012-10-09 15:15:00
10:35 AM,57.4,41.7,56,29.88,4.0,NW,17.3,20.7,N/A,,Haze,310,2012-10-09 15:35:00
10:55 AM,57.6,42.4,57,29.89,10.0,NNW,17.3,-,N/A,,Mostly Cloudy,330,2012-10-09 15:55:00
11:15 AM,57.6,42.8,58,29.89,5.0,NNW,20.7,26.5,N/A,,Haze,330,2012-10-09 16:15:00
11:35 AM,57.4,42.1,57,29.90,7.0,NNW,24.2,27.6,N/A,,Overcast,330,2012-10-09 16:35:00
11:55 AM,56.5,41.2,57,29.91,7.0,NNW,21.9,28.8,N/A,,Overcast,330,2012-10-09 16:55:00
12:15 PM,54.7,40.1,58,29.90,7.0,NNW,23.0,27.6,N/A,,Overcast,340,2012-10-09 17:15:00
12:35 PM,53.8,41.5,63,29.91,10.0,NNW,18.4,23.0,N/A,,Overcast,330,2012-10-09 17:35:00
12:55 PM,53.2,41.4,64,29.92,10.0,NNW,18.4,25.3,N/A,,Overcast,340,2012-10-09 17:55:00
1:15 PM,53.4,39.7,60,29.92,10.0,NW,16.1,25.3,N/A,,Overcast,310,2012-10-09 18:15:00
1:35 PM,52.0,38.3,60,29.93,10.0,NW,18.4,24.2,N/A,Rain,Light Rain,320,2012-10-09 18:35:00
1:55 PM,49.5,40.3,71,29.94,7.0,NW,12.7,20.7,N/A,Rain,Light Rain,310,2012-10-09 18:55:00
2:15 PM,49.5,40.3,71,29.93,10.0,West,6.9,-,N/A,Rain,Light Rain,270,2012-10-09 19:15:00
2:35 PM,50.2,42.1,74,29.93,10.0,West,10.4,-,N/A,,Overcast,280,2012-10-09 19:35:00
2:55 PM,50.5,38.1,62,29.93,10.0,WNW,11.5,19.6,N/A,,Overcast,300,2012-10-09 19:55:00
3:15 PM,51.3,37.2,59,29.94,10.0,WNW,13.8,-,N/A,,Overcast,300,2012-10-09 20:15:00
3:35 PM,51.4,37.0,58,29.94,10.0,WNW,12.7,-,N/A,,Overcast,300,2012-10-09 20:35:00
3:55 PM,51.8,36.1,55,29.95,10.0,NW,12.7,20.7,N/A,,Overcast,310,2012-10-09 20:55:00
4:15 PM,51.3,30.2,44,29.95,10.0,WNW,15.0,19.6,N/A,,Overcast,300,2012-10-09 21:15:00
4:35 PM,51.8,27.5,39,29.96,10.0,NW,16.1,21.9,N/A,,Overcast,310,2012-10-09 21:35:00
4:55 PM,51.8,27.3,39,29.96,10.0,WNW,12.7,17.3,N/A,,Overcast,300,2012-10-09 21:55:00
5:15 PM,51.8,26.4,37,29.96,10.0,WNW,11.5,19.6,N/A,,Overcast,300,2012-10-09 22:15:00
5:35 PM,51.8,25.9,37,29.96,10.0,West,11.5,18.4,N/A,,Overcast,280,2012-10-09 22:35:00
5:55 PM,51.4,26.4,38,29.96,10.0,WNW,9.2,-,N/A,,Overcast,290,2012-10-09 22:55:00
6:15 PM,50.9,26.6,39,29.96,10.0,West,11.5,-,N/A,,Overcast,280,2012-10-09 23:15:00
6:35 PM,50.4,27.5,41,29.96,10.0,West,8.1,-,N/A,,Overcast,270,2012-10-09 23:35:00
6:55 PM,50.4,27.3,41,29.97,10.0,WNW,10.4,16.1,N/A,,Overcast,300,2012-10-09 23:55:00
7:15 PM,50.0,28.4,43,29.99,10.0,NNW,16.1,24.2,N/A,,Overcast,330,2012-10-10 00:15:00
7:35 PM,48.4,28.9,47,30.00,10.0,NNW,13.8,20.7,N/A,,Overcast,330,2012-10-10 00:35:00
7:55 PM,47.3,28.9,49,30.02,10.0,NW,9.2,-,N/A,,Overcast,320,2012-10-10 00:55:00
8:15 PM,46.4,29.1,51,30.03,10.0,NW,15.0,18.4,N/A,,Overcast,320,2012-10-10 01:15:00
8:35 PM,45.7,29.1,52,30.04,10.0,NW,12.7,-,N/A,,Overcast,320,2012-10-10 01:35:00
8:55 PM,45.0,29.3,54,30.04,10.0,NW,12.7,-,N/A,,Overcast,310,2012-10-10 01:55:00
9:15 PM,44.2,29.7,57,30.06,10.0,NW,9.2,-,N/A,,Overcast,310,2012-10-10 02:15:00
9:35 PM,44.6,29.3,55,30.06,10.0,NW,12.7,-,N/A,,Mostly Cloudy,310,2012-10-10 02:35:00
9:55 PM,45.3,28.9,53,30.07,10.0,WNW,9.2,17.3,N/A,,Mostly Cloudy,300,2012-10-10 02:55:00
10:15 PM,43.7,28.4,55,30.08,10.0,NW,8.1,-,N/A,,Scattered Clouds,320,2012-10-10 03:15:00
10:35 PM,40.6,28.0,61,30.08,10.0,NW,5.8,-,N/A,,Clear,310,2012-10-10 03:35:00
10:55 PM,38.5,27.3,64,30.08,10.0,NW,5.8,-,N/A,,Clear,320,2012-10-10 03:55:00
11:15 PM,36.9,26.4,66,30.09,10.0,WNW,5.8,-,N/A,,Clear,290,2012-10-10 04:15:00
11:35 PM,34.7,27.1,74,30.09,10.0,West,9.2,-,N/A,,Clear,260,2012-10-10 04:35:00
11:55 PM,33.4,26.6,76,30.09,10.0,West,9.2,-,N/A,,Clear,270,2012-10-10 04:55:00